TimeEDT,TemperatureF,Dew PointF,Humidity,Sea Level PressureIn,VisibilityMPH,Wind Direction,Wind SpeedMPH,Gust SpeedMPH,PrecipitationIn,Events,Conditions,WindDirDegrees,DateUTC
12:15 AM,69.8,68.0,94,30.22,2.0,Calm,Calm,-,N/A,,Clear,0,2013-07-19 04:15:00
12:35 AM,69.8,66.2,88,30.21,2.0,Calm,Calm,-,N/A,,Clear,0,2013-07-19 04:35:00
12:55 AM,68.0,64.4,88,30.20,2.0,Calm,Calm,-,N/A,,Scattered Clouds,0,2013-07-19 04:55:00
1:15 AM,68.0,64.4,88,30.20,0.2,Calm,Calm,-,N/A,Fog,Fog,0,2013-07-19 05:15:00
1:35 AM,68.0,64.4,88,30.20,0.5,Calm,Calm,-,N/A,Fog,Fog,0,2013-07-19 05:35:00
1:55 AM,68.0,64.4,88,30.19,0.2,Calm,Calm,-,N/A,Fog,Fog,0,2013-07-19 05:55:00
2:15 AM,68.0,64.4,88,30.20,0.2,Calm,Calm,-,N/A,Fog,Fog,0,2013-07-19 06:15:00
2:35 AM,68.0,64.4,88,30.19,0.2,Calm,Calm,-,N/A,Fog,Fog,0,2013-07-19 06:35:00
2:55 AM,66.2,64.4,94,30.19,0.2,Calm,Calm,-,N/A,Fog,Fog,0,2013-07-19 06:55:00
3:15 AM,66.2,64.4,94,30.18,0.2,Calm,Calm,-,N/A,Fog,Fog,0,2013-07-19 07:15:00
3:35 AM,66.2,64.4,94,30.18,0.2,NE,3.5,-,N/A,Fog,Fog,50,2013-07-19 07:35:00
3:55 AM,66.2,64.4,94,30.18,0.2,NNE,3.5,-,N/A,Fog,Fog,30,2013-07-19 07:55:00
4:15 AM,64.4,62.6,94,30.18,0.2,Calm,Calm,-,N/A,Fog,Fog,0,2013-07-19 08:15:00
4:35 AM,66.2,64.4,94,30.18,0.2,Calm,Calm,-,N/A,Fog,Fog,0,2013-07-19 08:35:00
4:55 AM,64.4,62.6,94,30.18,0.2,Calm,Calm,-,N/A,Fog,Fog,0,2013-07-19 08:55:00
5:15 AM,64.4,62.6,94,30.18,0.2,Calm,Calm,-,N/A,Fog,Fog,0,2013-07-19 09:15:00
5:35 AM,64.4,62.6,94,30.18,0.2,Calm,Calm,-,N/A,Fog,Fog,0,2013-07-19 09:35:00
5:55 AM,64.4,62.6,94,30.18,0.2,Calm,Calm,-,N/A,Fog,Fog,0,2013-07-19 09:55:00
6:15 AM,64.4,62.6,94,30.17,0.2,NNE,3.5,-,N/A,Fog,Fog,20,2013-07-19 10:15:00
6:35 AM,64.4,62.6,94,30.18,0.2,Calm,Calm,-,N/A,Fog,Fog,0,2013-07-19 10:35:00
6:55 AM,64.4,62.6,94,30.18,0.2,Calm,Calm,-,N/A,Fog,Fog,0,2013-07-19 10:55:00
7:15 AM,64.4,62.6,94,30.18,0.2,Calm,Calm,-,N/A,Fog,Fog,0,2013-07-19 11:15:00
7:35 AM,64.4,64.4,100,30.18,0.2,Calm,Calm,-,N/A,Fog,Fog,0,2013-07-19 11:35:00
7:55 AM,66.2,64.4,94,30.18,0.2,Calm,Calm,-,N/A,Fog,Fog,0,2013-07-19 11:55:00
8:15 AM,66.2,64.4,94,30.19,0.2,Calm,Calm,-,N/A,Fog,Fog,0,2013-07-19 12:15:00
8:35 AM,68.0,64.4,88,30.19,0.2,Calm,Calm,-,N/A,Fog,Fog,0,2013-07-19 12:35:00
8:55 AM,68.0,64.4,88,30.19,0.5,Calm,Calm,-,N/A,Fog,Fog,0,2013-07-19 12:55:00
9:15 AM,68.0,66.2,94,30.19,0.5,SW,3.5,-,N/A,Fog,Fog,220,2013-07-19 13:15:00
9:35 AM,68.0,66.2,94,30.19,0.5,Calm,Calm,-,N/A,Fog,Fog,0,2013-07-19 13:35:00
9:55 AM,69.8,68.0,94,30.19,1.2,SW,3.5,-,N/A,,Overcast,230,2013-07-19 13:55:00
10:15 AM,69.8,68.0,94,30.19,2.0,WSW,3.5,-,N/A,,Overcast,240,2013-07-19 14:15:00
10:35 AM,69.8,68.0,94,30.19,4.0,SSW,4.6,-,N/A,,Overcast,200,2013-07-19 14:35:00
10:55 AM,71.6,68.0,88,30.19,4.0,SW,5.8,-,N/A,,Overcast,220,2013-07-19 14:55:00
11:15 AM,73.4,68.0,83,30.19,5.0,SSW,3.5,-,N/A,,Haze,210,2013-07-19 15:15:00
11:35 AM,77.0,68.0,74,30.18,7.0,SSW,4.6,-,N/A,,Scattered Clouds,200,2013-07-19 15:35:00
11:55 AM,77.0,68.0,74,30.18,7.0,Calm,Calm,-,N/A,,Scattered Clouds,0,2013-07-19 15:55:00
12:15 PM,78.8,68.0,69,30.17,7.0,SW,4.6,-,N/A,,Scattered Clouds,220,2013-07-19 16:15:00
12:35 PM,80.6,68.0,65,30.17,10.0,SW,6.9,-,N/A,,Clear,230,2013-07-19 16:35:00
12:55 PM,80.6,66.2,61,30.16,10.0,WSW,6.9,-,N/A,,Scattered Clouds,250,2013-07-19 16:55:00
1:15 PM,82.4,66.2,58,30.15,10.0,SW,9.2,-,N/A,Thunderstorm,Thunderstorm,220,2013-07-19 17:15:00
1:35 PM,82.4,66.2,58,30.13,10.0,WSW,5.8,-,N/A,Thunderstorm,Thunderstorm,240,2013-07-19 17:35:00
1:55 PM,80.6,64.4,58,30.14,10.0,WSW,4.6,-,N/A,Thunderstorm,Scattered Clouds,240,2013-07-19 17:55:00
2:15 PM,80.6,64.4,58,30.12,10.0,SW,4.6,-,N/A,,Clear,220,2013-07-19 18:15:00
2:35 PM,80.6,64.4,58,30.11,10.0,WSW,3.5,-,N/A,Thunderstorm,Clear,250,2013-07-19 18:35:00
2:55 PM,78.8,64.4,61,30.12,10.0,North,9.2,-,N/A,Thunderstorm,Scattered Clouds,350,2013-07-19 18:55:00
3:15 PM,73.4,62.6,69,30.12,10.0,North,8.1,-,N/A,Thunderstorm,Overcast,0,2013-07-19 19:15:00
3:35 PM,73.4,62.6,69,30.11,10.0,Calm,Calm,-,N/A,,Scattered Clouds,0,2013-07-19 19:35:00
3:55 PM,73.4,64.4,73,30.12,10.0,Calm,Calm,-,N/A,Thunderstorm,Clear,0,2013-07-19 19:55:00
4:15 PM,77.0,64.4,65,30.10,10.0,East,3.5,-,N/A,,Scattered Clouds,90,2013-07-19 20:15:00
4:35 PM,78.8,66.2,65,30.09,10.0,Calm,Calm,-,N/A,,Clear,0,2013-07-19 20:35:00
4:55 PM,78.8,66.2,65,30.09,10.0,Calm,Calm,-,N/A,,Clear,0,2013-07-19 20:55:00
5:15 PM,78.8,66.2,65,30.09,10.0,North,3.5,-,N/A,,Clear,10,2013-07-19 21:15:00
5:35 PM,78.8,68.0,69,30.09,10.0,NNE,4.6,-,N/A,,Clear,20,2013-07-19 21:35:00
5:55 PM,77.0,68.0,74,30.09,10.0,ENE,3.5,-,N/A,,Clear,60,2013-07-19 21:55:00
6:15 PM,78.8,68.0,69,30.09,10.0,Calm,Calm,-,N/A,,Clear,0,2013-07-19 22:15:00
6:35 PM,78.8,66.2,65,30.09,10.0,Calm,Calm,-,N/A,,Clear,0,2013-07-19 22:35:00
6:55 PM,78.8,68.0,69,30.09,10.0,East,3.5,-,N/A,,Clear,100,2013-07-19 22:55:00
7:15 PM,77.0,68.0,74,30.09,10.0,Calm,Calm,-,N/A,,Mostly Cloudy,0,2013-07-19 23:15:00
7:35 PM,77.0,68.0,74,30.08,10.0,Calm,Calm,-,N/A,Thunderstorm,Mostly Cloudy,0,2013-07-19 23:35:00
7:55 PM,75.2,68.0,78,30.08,10.0,Calm,Calm,-,N/A,,Mostly Cloudy,0,2013-07-19 23:55:00
8:15 PM,75.2,68.0,78,30.10,10.0,Calm,Calm,-,N/A,Thunderstorm,Scattered Clouds,0,2013-07-20 00:15:00
8:35 PM,71.6,62.6,73,30.11,10.0,WNW,12.7,21.9,N/A,Thunderstorm,Thunderstorm,300,2013-07-20 00:35:00
8:55 PM,69.8,64.4,83,30.11,7.0,NW,3.5,-,0.02,Rain-Thunderstorm,Thunderstorms and Rain,310,2013-07-20 00:55:00
9:15 PM,68.0,64.4,88,30.11,10.0,Calm,Calm,-,0.01,,Scattered Clouds,0,2013-07-20 01:15:00
9:35 PM,68.0,62.6,83,30.12,10.0,Calm,Calm,-,0.01,Rain,Light Rain,0,2013-07-20 01:35:00
9:55 PM,68.0,64.4,88,30.13,7.0,Calm,Calm,-,0.01,Rain-Thunderstorm,Light Thunderstorms and Rain,0,2013-07-20 01:55:00
10:15 PM,68.0,64.4,88,30.13,7.0,Calm,Calm,-,N/A,,Mostly Cloudy,0,2013-07-20 02:15:00
10:35 PM,68.0,64.4,88,30.12,10.0,South,3.5,-,N/A,,Scattered Clouds,180,2013-07-20 02:35:00
10:55 PM,66.2,62.6,88,30.11,10.0,South,4.6,-,N/A,,Clear,180,2013-07-20 02:55:00
11:15 PM,66.2,62.6,88,30.10,10.0,Calm,Calm,-,N/A,Rain,Light Rain,0,2013-07-20 03:15:00
11:35 PM,66.2,62.6,88,30.09,10.0,Calm,Calm,-,N/A,,Clear,0,2013-07-20 03:35:00
11:55 PM,68.0,62.6,83,30.09,10.0,SW,3.5,-,N/A,,Clear,230,2013-07-20 03:55:00